Location: Gesvres
(49.0440°N, 2.8518°E)
Time: 16:24:18
(UTC+00:00)

Envisat - Pass Details

Date: 01 June 2023
Orbit: 763 x 764 km, 98.2° (Epoch: 23 September)

Event Time Altitude Azimuth Distance (km) Brightness Sun altitude
Rises 02:01:56 0° 34° (NNE) 3,239 8.4 -12.8°
Reaches altitude 10° 02:07:01 10° 78° (ENE) 2,305 6.2 -12.4°
Maximum altitude 02:07:31 10° 84° (E) 2,294 6.0 -12.3°
Drops below altitude 10° 02:08:02 10° 90° (E) 2,303 5.9 -12.3°
Sets 02:13:04 0° 134° (SE) 3,220 6.1 -11.8°
